Regional Weather Roundup
Issued by NWS Charleston, SC

Current Version | Previous Version | Text Only | Print | Product List | Glossary Off
Versions: 1 2 3 4 5 6 7 8 9 10 11 12 13 14 15 16 17 18 19 20 21 22 23 24 25 26 27 28 29 30 31 32 33 34 35 36 37 38 39 40 41 42 43 44 45 46 47 48 49 50

000
ASUS42 KCHS 272126
RWRCHS
REGIONAL WEATHER ROUNDUP
NATIONAL WEATHER SERVICE CHARLESTON SC
500 PM EDT MON APR 27 2015

NOTE: "FAIR" INDICATES FEW OR NO CLOUDS BELOW 12,000 FEET WITH NO
SIGNIFICANT WEATHER AND/OR OBSTRUCTIONS TO VISIBILITY.

NOT ALL STATIONS ARE QUALITY CONTROLLED BY THE NATIONAL
WEATHER SERVICE. USE DATA WITH CAUTION...ESPECIALLY
DEWPOINT OBSERVATIONS.

SCZ027-030-031-034>040-042>050-272200-
...SOUTHEAST SOUTH CAROLINA...

CITY           SKY/WX    TMP DP  RH WIND       PRES   REMARKS
N CHARLESTON   CLOUDY    70  46  42 N6        29.81F
WATERFRONT PRK   N/A     70 N/A N/A N5G10       N/A
MOUNT PLEASANT FAIR      70  46  43 MISG      29.82S
PINOPOLIS      NOT AVBL
MONCKS CORNER  FAIR      72  46  40 CALM      29.82R
SUMMERVILLE    FAIR      70  48  46 CALM      29.83S
BEAUFORT MCAS  CLOUDY    72  50  45 N10       29.81F
BEAUFORT ARPT  FAIR      72  52  49 NW8       29.81R
HILTON HEAD IS PTSUNNY   72  50  46 N6        29.82F
WALTERBORO     CLOUDY    70  46  43 NW5       29.83R
ALLENDALE      MOCLDY    72  46  40 CALM      29.82R

...SOUTHERN MIDLANDS AND PEE DEE...

CITY           SKY/WX    TMP DP  RH WIND       PRES   REMARKS
GEORGETOWN     NOT AVBL
KINGSTREE      NOT AVBL
ORANGEBURG     PTSUNNY   72  42  34 NW12      29.81F
BARNWELL       FAIR      73  45  35 NW3       29.83R
AIKEN          FAIR      70  41  35 SW6       29.85S
MANNING        FAIR      70  27  19 NW6       29.80S
COLUMBIA       PTSUNNY   73  43  33 NW10      29.80F
SUMTER         PTSUNNY   72  44  36 W9        29.78F
FLORENCE       MOSUNNY   72  40  31 NW10G18   29.79F
MYRTLE BEACH   MOSUNNY   72  43  35 N12       29.81S
N MYRTLE BEACH MOSUNNY   70  43  37 NW9       29.79S

$$

GAZ063-065-086>088-099>101-113>116-118-119-134>141-150-272200-
...SOUTHEAST GEORGIA...

CITY           SKY/WX    TMP DP  RH WIND       PRES   REMARKS
SAVANNAH ARPT  CLOUDY    73  50  44 NW7       29.82F
HUNTER AAF     CLOUDY    73  54  50 NW8       29.79F
FORT STEWART   CLOUDY    74  53  48 N3        29.80F
STATESBORO       N/A     71  52  50 N7        29.83R
SYLVANIA       CLOUDY    71  52  50 N7        29.83R
CLAXTON        FAIR      72  54  53 NW6       29.83R

...CSRA...CENTRAL AND FAR SOUTHEAST GEORGIA...

CITY           SKY/WX    TMP DP  RH WIND       PRES   REMARKS
THOMSON        PTSUNNY   73  53  49 CALM      29.87R
AUGUSTA-BUSH   PTSUNNY   73  44  35 VRB3      29.82S
AUGUSTA-DANIEL PTSUNNY   73  46  38 VRB5      29.83S
SWAINSBORO     NOT AVBL
VIDALIA        CLOUDY    73  54  49 NW5       29.83R
EASTMAN        FAIR      74  56  53 N5        29.86S
HAZLEHURST     FAIR      76  56  50 N3        29.82S
ALMA           CLOUDY    71  58  63 CALM      29.83R
WAYCROSS       CLOUDY    73  62  67 CALM      29.84R
JESUP          FAIR      73  61  64 W3        29.82F
BAXLEY         FAIR      75  57  53 CALM      29.83S
BRUNSWICK      CLOUDY    70  59  68 CALM      29.83S
SAINT SIMONS   CLOUDY    68  60  75 NW5       29.83S

$$

SCZ027-028-034-036>038-045-046-048>050-GAZ119-141-272200-
...LAKE AND SUPPLEMENTAL COASTAL OBSERVATIONS...

STATION/POSITION TIME  TEMP    WIND        PRES    WAVE   SWELL
                       AIR SEA DIR/SP/G            HT/PER HT/PER/DIR
                 (UTC) (F)     (DEG/KT/KT) (MB)    (FT/S) (FT/S/D)
UPR LAKE MARION  NOT AVBL
WINYAH BAY       2000   64     130/  8     1008.0S
LAKE MURRAY      2000   68     140/  6/  7 1009.1F
ACE BASIN NERRS  1945   73     340/  3     1010.0
FORT PULASKI     2100   67 71  150/  5/  7 1010.1F
SAPELO ISLAND    2100   70     220/  3     1010.0S

$$

ANZ835-935-AMZ111-154-330-350-352-354-370-450-454-472-272200-
...C-MAN AND BUOY OBSERVATIONS...

STATION/POSITION TIME  TEMP    WIND        PRES    WAVE   SWELL
                       AIR SEA DIR/SP/G            HT/PER HT/PER/DIR
                 (UTC) (F)     (DEG/KT/KT) (MB)    (FT/S) (FT/S/D)
BUOY 41004       2050   64 71   40/  8/ 10 1009.2S   3/ 6   2/ 6
BUOY 41008       2050   64 70   60/  2/  4 1010.0F   3/ 6   2/ 60/ 6
FOLLY BEACH CMAN 2100   65     140/  6/  8 1009.4F
CAPERS NEARSHORE 2008   64     180/ 10/ 12 1010.0R
FRIPP NEARSHORE  2000   68     130/  6/  8 1009.3F


STATION/POSITION TIME  TEMP    WIND        PRES    WAVE   SWELL
                       AIR SEA DIR/SP/G            HT/PER HT/PER/DIR
                 (UTC) (F)     (DEG/KT/KT) (MB)    (FT/S) (FT/S/D)
5E ST. MARYS GA  2021      70                N/A     3/ 5
FRYING PAN BUOY  2050   64 71  250/  2/  4 1009.6R   3/ 9   3/ 70/ 9
BUOY 41025       2050   64 75  270/ 10/ 16 1007.5R   4/ 8   3/ 90/ 8
CAPE LOOKOUT NC  2100   64     230/  7/  9 1007.6R
BUOY 41002       2050   68 71  350/ 16/ 19 1006.8R   5/ 7   3/ 20/ 7
BUOY 41010       2020   78 80  300/ 14/ 16 1007.6S
ST AUGUSTINE FL  2100   69 69   30/  8/  9 1011.3R


$$


USA.gov is the U.S. government's official web portal to all federal, state and local government web resources and services.